Hollywood, FL

5:54 AM EDT on May 26, 2017 (GMT -0400)
North Perry

Weather History for KHWO - February, 2013

Change the Weather History Date:

Friday, February 1, 2013

  Actual Average (KFLL) Record (KFLL)
Temperature  
Mean Temperature 64 °F -  
Max Temperature 75 °F 75 °F 84 °F (1974)
Min Temperature 52 °F 56 °F 33 °F (1966)
Degree Days  
Heating Degree Days 2    
Growing Degree Days 14 (Base 50)    
Moisture  
Dew Point 46 °F    
Average Humidity 55    
Maximum Humidity 72    
Minimum Humidity 42    
Precipitation  
Precipitation 0.00 in - - ()
Sea Level Pressure  
Sea Level Pressure 30.24 in    
Wind  
Wind Speed 11 mph (North)    
Max Wind Speed 18 mph    
Max Gust Speed 25 mph    
Visibility 10 miles    
Events      
Averages and records for this station are not official NWS values.
T = Trace of Precipitation, MM = Missing Value Source: NWS Daily Summary

Daily Weather History Graph

Daily Weather History Graph

Search for Another Location

Airport or City:

Trip Planner

Search our weather history database for the weather conditions in past years. The results will help you decide how hot, cold, wet, or windy it might be!

Date:

Astronomy

Feb. 01, 2013 Rise Set
Actual Time 7:04 AM EST 6:04 PM EST
Civil Twilight 6:40 AM EST 6:28 PM EST
Nautical Twilight 6:13 AM EST 6:56 PM EST
Astronomical Twilight 5:45 AM EST 7:23 PM EST
Moon 11:27 PM EST (2/1) 10:16 AM EST (2/1)
Length of Visible Light 11h 47m
Length of Day
10h 59m
Waning Gibbous, 70% of the Moon is Illuminated
Feb 1
Waning Gibbous
Feb 3
Last Quarter
Feb 10
New
Feb 17
First Quarter
Feb 25
Full

Hourly Weather History & Observations

Time (EST) Temp. Dew Point Humidity Pressure Visibility Wind Dir Wind Speed Gust Speed Precip Events Conditions
12:53 AM 59.0 °F 39.0 °F 48% 30.20 in 10.0 mi NNW 10.4 mph - N/A   Clear
1:53 AM 57.9 °F 39.9 °F 51% 30.19 in 10.0 mi NNW 9.2 mph - N/A   Clear
2:53 AM 57.0 °F 39.0 °F 51% 30.19 in 10.0 mi NNW 10.4 mph - N/A   Clear
3:53 AM 55.0 °F 37.9 °F 53% 30.19 in 10.0 mi NNW 9.2 mph - N/A   Clear
4:53 AM 53.1 °F 37.9 °F 57% 30.19 in 10.0 mi NNW 11.5 mph - N/A   Clear
5:53 AM 52.0 °F 39.0 °F 61% 30.21 in 10.0 mi NNW 11.5 mph - N/A   Clear
6:53 AM 52.0 °F 39.9 °F 63% 30.23 in 10.0 mi NNW 8.1 mph - N/A   Clear
7:53 AM 55.0 °F 42.1 °F 62% 30.25 in 10.0 mi North 8.1 mph - N/A   Clear
8:53 AM 60.1 °F 45.0 °F 57% 30.27 in 10.0 mi NNW 11.5 mph - N/A   Clear
9:53 AM 64.0 °F 46.0 °F 52% 30.29 in 10.0 mi NNW 11.5 mph - N/A   Clear
10:53 AM 69.1 °F 48.9 °F 49% 30.28 in 10.0 mi NNW 12.7 mph - N/A   Clear
11:53 AM 73.0 °F 50.0 °F 44% 30.28 in 10.0 mi North 12.7 mph - N/A   Clear
12:53 PM 73.9 °F 50.0 °F 43% 30.27 in 10.0 mi NNE 15.0 mph 21.9 mph N/A   Scattered Clouds
1:53 PM 73.0 °F 48.9 °F 42% 30.24 in 10.0 mi NE 18.4 mph 21.9 mph N/A   Mostly Cloudy
2:53 PM 72.0 °F 51.1 °F 48% 30.23 in 10.0 mi NNE 12.7 mph 23.0 mph N/A   Mostly Cloudy
3:53 PM 75.0 °F 51.1 °F 43% 30.22 in 10.0 mi NE 15.0 mph 21.9 mph N/A   Scattered Clouds
4:53 PM 71.1 °F 51.1 °F 49% 30.23 in 10.0 mi NE 15.0 mph 25.3 mph N/A   Partly Cloudy
5:53 PM 69.1 °F 50.0 °F 51% 30.24 in 10.0 mi NE 16.1 mph - N/A   Mostly Cloudy
6:53 PM 68.0 °F 48.9 °F 50% 30.25 in 10.0 mi NNE 8.1 mph - N/A   Partly Cloudy
7:53 PM 64.9 °F 52.0 °F 63% 30.25 in 10.0 mi North 6.9 mph - N/A   Scattered Clouds
8:53 PM 63.0 °F 52.0 °F 67% 30.26 in 10.0 mi North 8.1 mph - N/A   Scattered Clouds
9:53 PM 62.1 °F 51.1 °F 67% 30.26 in 10.0 mi North 9.2 mph - N/A   Scattered Clouds
10:53 PM 59.0 °F 50.0 °F 72% 30.26 in 10.0 mi North 5.8 mph - N/A   Clear
11:53 PM 59.0 °F 50.0 °F 72% 30.26 in 10.0 mi North 4.6 mph - N/A   Mostly Cloudy